| time (UTC) | temp F | wind direction | speed MPH | gust MPH | rain 1hr in | rain 24hr in | rain mn in | humidity % | barometer mb |
| 20260901115051 | 73 | 328 | 0.0 | 0.0 | 0.00 | 1.71 | 1.28 | 84 | 1017.8 |
| 20260901114549 | 73 | 338 | 0.0 | 0.0 | 0.00 | 1.71 | 1.28 | 84 | 1017.8 |
| 20260901114148 | 73 | 328 | 0.0 | 0.0 | 0.00 | 1.71 | 1.28 | 84 | 1017.8 |
| 20260901113547 | 73 | 48 | 0.0 | 0.0 | 0.00 | 1.71 | 1.28 | 84 | 1017.8 |
| 20260901113150 | 73 | 339 | 0.0 | 0.0 | 0.00 | 1.71 | 1.28 | 84 | 1017.7 |
| 20260901112545 | 73 | 337 | 0.0 | 0.0 | 0.00 | 1.71 | 1.28 | 84 | 1017.6 |
| 20260901112046 | 73 | 330 | 0.0 | 0.0 | 0.00 | 1.71 | 1.28 | 84 | 1017.6 |
| 20260901111544 | 73 | 348 | 0.0 | 0.0 | 0.00 | 1.71 | 1.28 | 84 | 1017.5 |
| 20260901111047 | 73 | 335 | 0.0 | 0.0 | 0.00 | 1.71 | 1.28 | 84 | 1017.4 |
| 20260901110543 | 73 | 342 | 0.0 | 0.0 | 0.00 | 1.71 | 1.28 | 84 | 1017.3 |
| 20260901110058 | 72 | 334 | 0.0 | 0.0 | 0.00 | 1.71 | 1.28 | 84 | 1017.3 |
| 20260901105640 | 73 | 335 | 0.0 | 1.0 | 0.00 | 1.71 | 1.28 | 84 | 1017.0 |
| 20260901105037 | 0 | 0.0 | 0.0 | 0.00 | 1.71 | 1.28 | 1017.0 | ||
| 20260901104536 | 0 | 0.0 | 0.0 | 0.00 | 1.71 | 1.28 | 1016.8 | ||
| 20260901104036 | 0 | 0.0 | 0.0 | 0.00 | 1.71 | 1.28 | 1016.8 | ||
| 20260901103534 | 0 | 0.0 | 0.0 | 0.00 | 1.71 | 1.28 | 1016.9 | ||
| 20260901103032 | 0 | 0.0 | 0.0 | 0.00 | 1.71 | 1.28 | 1017.0 | ||
| 20260901102530 | 0 | 0.0 | 0.0 | 0.00 | 1.71 | 1.28 | 1017.0 | ||
| 20260901102028 | 0 | 0.0 | 0.0 | 0.00 | 1.71 | 1.28 | 1016.9 | ||
| 20260901101541 | 0 | 0.0 | 0.0 | 0.00 | 1.71 | 1.28 | 1017.0 | ||
| 20260901101024 | 0 | 0.0 | 0.0 | 0.00 | 1.71 | 1.28 | 1016.9 | ||
| 20260901100522 | 0 | 0.0 | 0.0 | 0.00 | 1.71 | 1.28 | 1017.0 | ||
| 20260901100021 | 0 | 0.0 | 0.0 | 0.00 | 1.71 | 1.28 | 1016.9 | ||
| 20260901095519 | 0 | 0.0 | 0.0 | 0.00 | 1.71 | 1.28 | 1016.8 | ||
| 20260901095018 | 0 | 0.0 | 0.0 | 0.00 | 1.71 | 1.28 | 1016.8 | ||
| 20260901094516 | 0 | 0.0 | 0.0 | 0.00 | 1.71 | 1.28 | 1016.8 | ||
| 20260901094013 | 0 | 0.0 | 0.0 | 0.00 | 1.71 | 1.28 | 1016.8 | ||
| 20260901093516 | 0 | 0.0 | 0.0 | 0.00 | 1.71 | 1.28 | 1016.7 | ||
| 20260901093018 | 0 | 0.0 | 0.0 | 0.00 | 1.71 | 1.28 | 1016.6 | ||
| 20260901092510 | 0 | 0.0 | 0.0 | 0.00 | 1.71 | 1.28 | 1016.6 | ||
| 20260901092007 | 0 | 0.0 | 0.0 | 0.00 | 1.71 | 1.28 | 1016.7 | ||
| 20260901091507 | 0 | 0.0 | 0.0 | 0.00 | 1.71 | 1.28 | 1016.8 | ||
| 20260901091005 | 0 | 0.0 | 0.0 | 0.00 | 1.71 | 1.28 | 1016.8 | ||
| 20260901090503 | 0 | 0.0 | 0.0 | 0.00 | 1.71 | 1.28 | 1016.8 | ||
| 20260901090104 | 0 | 0.0 | 0.0 | 0.00 | 1.71 | 1.28 | 1016.7 | ||
| 20260901085558 | 0 | 0.0 | 0.0 | 0.00 | 1.71 | 1.28 | 1016.7 | ||
| 20260901085056 | 0 | 0.0 | 0.0 | 0.00 | 1.71 | 1.28 | 1016.8 | ||
| 20260901084559 | 0 | 0.0 | 0.0 | 0.00 | 1.71 | 1.28 | 1016.9 | ||
| 20260901084053 | 0 | 0.0 | 0.0 | 0.00 | 1.71 | 1.28 | 1016.7 | ||
| 20260901083554 | 0 | 0.0 | 0.0 | 0.00 | 1.71 | 1.28 | 1016.9 | ||
| 20260901083050 | 0 | 0.0 | 0.0 | 0.00 | 1.71 | 1.28 | 1016.9 | ||
| 20260901082550 | 0 | 0.0 | 0.0 | 0.00 | 1.71 | 1.28 | 1017.0 | ||
| 20260901082048 | 0 | 0.0 | 0.0 | 0.00 | 1.71 | 1.28 | 1017.0 | ||
| 20260901081550 | 0 | 0.0 | 0.0 | 0.00 | 1.71 | 1.28 | 1016.9 | ||
| 20260901081044 | 0 | 0.0 | 0.0 | 0.00 | 1.71 | 1.28 | 1016.8 | ||
| 20260901080542 | 0 | 0.0 | 0.0 | 0.00 | 1.71 | 1.28 | 1016.9 | ||
| 20260901080043 | 0 | 0.0 | 0.0 | 0.00 | 1.71 | 1.28 | 1016.7 | ||
| 20260901075537 | 0 | 212 | 0.0 | 0.0 | 0.00 | 1.72 | 1.28 | 1016.8 | |
| 20260901075036 | 0 | 212 | 0.0 | 0.0 | 0.00 | 1.72 | 1.28 | 1016.6 | |
| 20260901074536 | 73 | 212 | 0.0 | 0.0 | 0.00 | 1.72 | 1.28 | 84 | 1016.7 |
| 20260901074035 | 73 | 212 | 0.0 | 0.0 | 0.00 | 1.72 | 1.28 | 84 | 1016.5 |
| 20260901073535 | 73 | 212 | 0.0 | 0.0 | 0.00 | 1.72 | 1.28 | 84 | 1016.6 |
| 20260901073037 | 73 | 212 | 0.0 | 0.0 | 0.00 | 1.72 | 1.28 | 84 | 1016.6 |
| 20260901072536 | 73 | 212 | 0.0 | 0.0 | 0.00 | 1.72 | 1.28 | 84 | 1016.6 |
| 20260901072030 | 73 | 212 | 0.0 | 0.0 | 0.00 | 1.72 | 1.28 | 84 | 1016.7 |
| 20260901071529 | 73 | 212 | 0.0 | 0.0 | 0.00 | 1.72 | 1.28 | 84 | 1016.7 |
| 20260901071030 | 73 | 212 | 0.0 | 0.0 | 0.00 | 1.72 | 1.28 | 84 | 1016.9 |
| 20260901070526 | 73 | 234 | 0.0 | 0.0 | 0.00 | 1.72 | 1.28 | 84 | 1017.0 |
| 20260901070025 | 73 | 72 | 0.0 | 0.0 | 0.00 | 1.72 | 1.28 | 84 | 1017.1 |
| 20260901065527 | 73 | 67 | 0.0 | 0.0 | 0.00 | 1.72 | 1.28 | 84 | 1017.1 |
| 20260901065022 | 73 | 86 | 0.0 | 0.0 | 0.01 | 1.72 | 1.28 | 84 | 1017.3 |
| 20260901064524 | 73 | 340 | 0.0 | 0.0 | 0.01 | 1.72 | 1.28 | 84 | 1017.5 |
| 20260901064019 | 73 | 31 | 0.0 | 0.0 | 0.01 | 1.72 | 1.28 | 84 | 1017.8 |
| 20260901063517 | 73 | 15 | 0.0 | 0.0 | 0.01 | 1.72 | 1.28 | 84 | 1017.8 |
| 20260901063017 | 73 | 13 | 0.0 | 0.0 | 0.01 | 1.72 | 1.28 | 84 | 1018.0 |
| 20260901062515 | 73 | 347 | 0.0 | 0.0 | 0.01 | 1.72 | 1.28 | 84 | 1018.0 |
| 20260901062021 | 73 | 338 | 0.0 | 4.0 | 0.04 | 1.72 | 1.28 | 84 | 1018.2 |
| 20260901061512 | 73 | 23 | 0.0 | 6.0 | 0.10 | 1.72 | 1.28 | 84 | 1018.3 |
| 20260901061012 | 73 | 329 | 3.0 | 7.0 | 0.35 | 1.72 | 1.28 | 84 | 1018.4 |
| 20260901060510 | 73 | 330 | 4.0 | 7.0 | 0.72 | 1.72 | 1.28 | 84 | 1018.4 |
| 20260901060009 | 73 | 337 | 1.0 | 6.0 | 0.95 | 1.72 | 1.28 | 84 | 1018.4 |
| 20260901055508 | 73 | 17 | 3.0 | 6.0 | 1.12 | 1.72 | 1.28 | 84 | 1018.6 |
| 20260901055015 | 74 | 335 | 3.0 | 7.0 | 1.26 | 1.71 | 1.27 | 84 | 1018.4 |
| 20260901054506 | 74 | 340 | 4.0 | 7.0 | 1.27 | 1.71 | 1.27 | 83 | 1018.5 |
| 20260901054004 | 74 | 46 | 0.0 | 3.0 | 1.27 | 1.71 | 1.27 | 84 | 1018.5 |
| 20260901053504 | 74 | 48 | 0.0 | 0.0 | 1.27 | 1.71 | 1.27 | 83 | 1018.6 |
| 20260901053004 | 74 | 4 | 0.0 | 0.0 | 1.27 | 1.71 | 1.27 | 84 | 1018.6 |
| 20260901052501 | 74 | 25 | 0.0 | 4.0 | 1.26 | 1.70 | 1.26 | 83 | 1018.7 |
| 20260901052005 | 74 | 176 | 0.0 | 4.0 | 1.23 | 1.67 | 1.23 | 83 | 1018.6 |
| 20260901051608 | 74 | 165 | 1.0 | 7.0 | 1.18 | 1.62 | 1.18 | 83 | 1018.7 |
| 20260901051059 | 75 | 95 | 3.0 | 7.0 | 0.91 | 1.35 | 0.91 | 83 | 1018.8 |
| 20260901050557 | 75 | 138 | 0.0 | 7.0 | 0.56 | 1.00 | 0.56 | 83 | 1018.8 |
| 20260901050055 | 76 | 186 | 3.0 | 8.0 | 0.33 | 0.77 | 0.33 | 82 | 1018.6 |
| 20260901045553 | 76 | 170 | 2.0 | 10.0 | 0.16 | 0.61 | 0.16 | 81 | 1018.5 |
| 20260901045053 | 76 | 193 | 4.0 | 12.0 | 0.01 | 0.46 | 0.01 | 81 | 1018.6 |
| 20260901044615 | 76 | 215 | 6.0 | 12.0 | 0.00 | 0.45 | 0.00 | 81 | 1018.6 |
| 20260901044047 | 77 | 209 | 5.0 | 13.0 | 0.00 | 0.45 | 0.00 | 81 | 1018.5 |
| 20260901043546 | 78 | 226 | 8.0 | 13.0 | 0.00 | 0.45 | 0.00 | 81 | 1018.5 |
| 20260901043045 | 78 | 165 | 0.0 | 0.0 | 0.00 | 0.45 | 0.00 | 82 | 1018.1 |
| 20260901042543 | 78 | 136 | 0.0 | 0.0 | 0.00 | 0.45 | 0.00 | 82 | 1018.1 |
| 20260901042042 | 78 | 160 | 0.0 | 0.0 | 0.00 | 0.45 | 0.00 | 82 | 1018.2 |
| 20260901041541 | 78 | 157 | 0.0 | 0.0 | 0.00 | 0.45 | 0.00 | 82 | 1018.2 |
| 20260901041042 | 78 | 133 | 0.0 | 0.0 | 0.00 | 0.45 | 0.00 | 82 | 1018.3 |
| 20260901040539 | 78 | 122 | 0.0 | 0.0 | 0.00 | 0.45 | 0.00 | 82 | 1018.4 |
| 20260901040038 | 78 | 132 | 0.0 | 0.0 | 0.00 | 0.45 | 0.00 | 82 | 1018.5 |
| 20260901035537 | 78 | 153 | 0.0 | 0.0 | 0.00 | 0.45 | 0.45 | 82 | 1018.6 |
| 20260901035035 | 78 | 177 | 0.0 | 0.0 | 0.00 | 0.45 | 0.45 | 82 | 1018.6 |
| 20260901034541 | 78 | 103 | 0.0 | 0.0 | 0.00 | 0.45 | 0.45 | 82 | 1018.7 |
| 20260901034035 | 78 | 146 | 0.0 | 0.0 | 0.00 | 0.45 | 0.45 | 82 | 1018.6 |
| 20260901033534 | 78 | 165 | 0.0 | 0.0 | 0.00 | 0.45 | 0.45 | 82 | 1018.6 |
| 20260901033041 | 78 | 148 | 0.0 | 0.0 | 0.00 | 0.45 | 0.45 | 82 | 1018.6 |
| 20260901032533 | 78 | 153 | 0.0 | 0.0 | 0.00 | 0.45 | 0.45 | 82 | 1018.6 |
| 20260901032032 | 78 | 134 | 0.0 | 0.0 | 0.00 | 0.45 | 0.45 | 82 | 1018.4 |
| 20260901031537 | 78 | 134 | 0.0 | 0.0 | 0.00 | 0.45 | 0.45 | 82 | 1018.4 |
| 20260901031030 | 78 | 166 | 0.0 | 0.0 | 0.00 | 0.45 | 0.45 | 82 | 1018.4 |
| 20260901030531 | 78 | 159 | 0.0 | 0.0 | 0.00 | 0.45 | 0.45 | 82 | 1018.4 |
| 20260901030034 | 78 | 132 | 0.0 | 0.0 | 0.00 | 0.45 | 0.45 | 82 | 1018.4 |
| 20260901025529 | 78 | 168 | 0.0 | 0.0 | 0.01 | 0.45 | 0.45 | 82 | 1018.4 |
| 20260901025028 | 78 | 96 | 0.0 | 0.0 | 0.01 | 0.45 | 0.45 | 82 | 1018.4 |
| 20260901024528 | 78 | 146 | 0.0 | 0.0 | 0.01 | 0.45 | 0.45 | 82 | 1018.4 |
| 20260901024029 | 78 | 122 | 0.0 | 0.0 | 0.01 | 0.45 | 0.45 | 81 | 1018.2 |
| 20260901023526 | 78 | 150 | 0.0 | 0.0 | 0.01 | 0.45 | 0.45 | 81 | 1018.3 |
| 20260901023026 | 78 | 167 | 0.0 | 0.0 | 0.01 | 0.45 | 0.45 | 81 | 1018.4 |
| 20260901022525 | 78 | 150 | 0.0 | 0.0 | 0.01 | 0.45 | 0.45 | 81 | 1018.5 |
| 20260901022024 | 79 | 157 | 0.0 | 0.0 | 0.01 | 0.45 | 0.45 | 81 | 1018.5 |
| 20260901021533 | 79 | 163 | 0.0 | 0.0 | 0.01 | 0.45 | 0.45 | 81 | 1018.5 |
| 20260901021025 | 79 | 166 | 0.0 | 3.0 | 0.01 | 0.45 | 0.45 | 81 | 1018.4 |
| 20260901020526 | 79 | 194 | 0.0 | 3.0 | 0.01 | 0.45 | 0.45 | 80 | 1018.4 |
| 20260901020042 | 79 | 122 | 0.0 | 0.0 | 0.01 | 0.45 | 0.45 | 80 | 1018.4 |
| 20260901015521 | 78 | 115 | 0.0 | 0.0 | 0.00 | 0.44 | 0.44 | 81 | 1018.4 |
| 20260901015021 | 78 | 109 | 0.0 | 0.0 | 0.00 | 0.44 | 0.44 | 81 | 1018.4 |
| 20260901014520 | 78 | 63 | 0.0 | 0.0 | 0.00 | 0.44 | 0.44 | 81 | 1018.4 |
| 20260901014021 | 78 | 131 | 0.0 | 0.0 | 0.00 | 0.44 | 0.44 | 82 | 1018.5 |
| 20260901013520 | 78 | 98 | 0.0 | 0.0 | 0.00 | 0.44 | 0.44 | 82 | 1018.7 |
| 20260901013019 | 78 | 113 | 0.0 | 0.0 | 0.00 | 0.44 | 0.44 | 83 | 1018.6 |
| 20260901012518 | 78 | 142 | 0.0 | 0.0 | 0.00 | 0.44 | 0.44 | 83 | 1018.7 |
| 20260901012020 | 78 | 161 | 0.0 | 0.0 | 0.00 | 0.44 | 0.44 | 83 | 1018.6 |
| 20260901011527 | 78 | 160 | 0.0 | 0.0 | 0.00 | 0.44 | 0.44 | 83 | 1018.6 |
| 20260901011017 | 78 | 167 | 0.0 | 0.0 | 0.00 | 0.44 | 0.44 | 83 | 1018.6 |
| 20260901010519 | 78 | 174 | 0.0 | 0.0 | 0.00 | 0.44 | 0.44 | 83 | 1018.7 |
| 20260901010017 | 78 | 179 | 0.0 | 0.0 | 0.00 | 0.44 | 0.44 | 83 | 1018.6 |
| 20260901005519 | 78 | 131 | 0.0 | 0.0 | 0.00 | 0.44 | 0.44 | 83 | 1018.5 |
| 20260901005013 | 78 | 203 | 0.0 | 0.0 | 0.00 | 0.44 | 0.44 | 83 | 1018.4 |
| 20260901004513 | 78 | 130 | 0.0 | 0.0 | 0.00 | 0.44 | 0.44 | 83 | 1018.4 |
| 20260901004012 | 78 | 141 | 0.0 | 0.0 | 0.00 | 0.44 | 0.44 | 83 | 1018.2 |
| 20260901003513 | 77 | 131 | 0.0 | 0.0 | 0.00 | 0.44 | 0.44 | 83 | 1018.1 |
| 20260901003010 | 78 | 132 | 0.0 | 0.0 | 0.00 | 0.44 | 0.44 | 83 | 1017.9 |
| 20260901002510 | 77 | 185 | 0.0 | 0.0 | 0.00 | 0.44 | 0.44 | 83 | 1017.9 |
| 20260901002011 | 77 | 127 | 0.0 | 0.0 | 0.00 | 0.44 | 0.44 | 83 | 1017.8 |
| 20260901001509 | 77 | 157 | 0.0 | 0.0 | 0.00 | 0.44 | 0.44 | 83 | 1017.8 |
| 20260901001008 | 77 | 148 | 0.0 | 0.0 | 0.00 | 0.44 | 0.44 | 83 | 1017.7 |
| 20260901000508 | 77 | 138 | 0.0 | 0.0 | 0.00 | 0.44 | 0.44 | 82 | 1017.7 |
| 20260901000008 | 77 | 145 | 0.0 | 0.0 | 0.00 | 0.44 | 0.44 | 82 | 1017.7 |
| 20260831235507 | 78 | 134 | 0.0 | 0.0 | 0.00 | 0.44 | 0.44 | 82 | 1017.7 |
| 20260831235007 | 78 | 136 | 0.0 | 0.0 | 0.00 | 0.44 | 0.44 | 82 | 1017.7 |
| 20260831234507 | 78 | 164 | 0.0 | 0.0 | 0.00 | 0.44 | 0.44 | 82 | 1017.6 |
| 20260831234005 | 78 | 146 | 0.0 | 0.0 | 0.00 | 0.44 | 0.44 | 82 | 1017.6 |
| 20260831233505 | 78 | 160 | 0.0 | 0.0 | 0.00 | 0.44 | 0.44 | 82 | 1017.5 |
| 20260831233008 | 78 | 158 | 0.0 | 0.0 | 0.00 | 0.44 | 0.44 | 82 | 1017.5 |
| 20260831232504 | 78 | 142 | 0.0 | 0.0 | 0.00 | 0.44 | 0.44 | 82 | 1017.4 |
| 20260831232004 | 78 | 122 | 0.0 | 0.0 | 0.00 | 0.44 | 0.44 | 82 | 1017.3 |
| 20260831231504 | 78 | 172 | 0.0 | 0.0 | 0.00 | 0.44 | 0.44 | 82 | 1017.3 |
| 20260831231006 | 78 | 143 | 0.0 | 0.0 | 0.00 | 0.44 | 0.44 | 82 | 1017.2 |
| 20260831230503 | 78 | 146 | 0.0 | 0.0 | 0.00 | 0.44 | 0.44 | 82 | 1017.1 |
| 20260831230005 | 78 | 158 | 0.0 | 0.0 | 0.00 | 0.44 | 0.44 | 82 | 1017.2 |
| 20260831225503 | 78 | 158 | 0.0 | 0.0 | 0.00 | 0.44 | 0.44 | 82 | 1017.0 |
| 20260831225001 | 78 | 155 | 0.0 | 0.0 | 0.00 | 0.44 | 0.44 | 82 | 1017.0 |
| 20260831224501 | 78 | 155 | 0.0 | 0.0 | 0.01 | 0.44 | 0.44 | 82 | 1017.0 |
| 20260831224002 | 78 | 156 | 0.0 | 0.0 | 0.02 | 0.44 | 0.44 | 82 | 1017.0 |
| 20260831223601 | 78 | 155 | 0.0 | 0.0 | 0.03 | 0.44 | 0.44 | 82 | 1017.1 |
| 20260831223101 | 78 | 219 | 0.0 | 0.0 | 0.05 | 0.44 | 0.44 | 82 | 1016.9 |
| 20260831223002 | 78 | 217 | 0.0 | 0.0 | 0.05 | 0.44 | 0.44 | 82 | 1017.0 |
| 20260831222600 | 77 | 207 | 0.0 | 0.0 | 0.05 | 0.44 | 0.44 | 82 | 1017.0 |
| 20260831222059 | 77 | 205 | 0.0 | 0.0 | 0.07 | 0.44 | 0.44 | 81 | 1016.9 |
| 20260831221603 | 78 | 207 | 0.0 | 0.0 | 0.07 | 0.44 | 0.44 | 81 | 1016.8 |
| 20260831221058 | 78 | 207 | 0.0 | 0.0 | 0.07 | 0.44 | 0.44 | 81 | 1016.9 |
| 20260831220558 | 78 | 185 | 0.0 | 0.0 | 0.07 | 0.44 | 0.44 | 81 | 1016.8 |
| 20260831220113 | 78 | 184 | 0.0 | 0.0 | 0.07 | 0.44 | 0.44 | 81 | 1016.9 |
| 20260831215601 | 78 | 212 | 0.0 | 0.0 | 0.07 | 0.44 | 0.44 | 81 | 1016.7 |
| 20260831215059 | 78 | 117 | 0.0 | 0.0 | 0.07 | 0.44 | 0.44 | 81 | 1016.8 |
| 20260831214557 | 77 | 79 | 0.0 | 0.0 | 0.07 | 0.43 | 0.43 | 81 | 1016.8 |
| 20260831214056 | 77 | 74 | 0.0 | 0.0 | 0.06 | 0.42 | 0.42 | 81 | 1016.8 |
| 20260831213556 | 77 | 29 | 0.0 | 1.0 | 0.06 | 0.41 | 0.41 | 81 | 1016.8 |
| 20260831213055 | 77 | 121 | 0.0 | 1.0 | 0.05 | 0.39 | 0.39 | 81 | 1016.9 |
| 20260831212557 | 77 | 72 | 0.0 | 1.0 | 0.04 | 0.38 | 0.38 | 82 | 1016.9 |
| 20260831212055 | 76 | 84 | 0.0 | 2.0 | 0.06 | 0.37 | 0.37 | 82 | 1016.8 |
| 20260831211607 | 77 | 81 | 0.0 | 0.0 | 0.09 | 0.37 | 0.37 | 82 | 1017.0 |
| 20260831211052 | 77 | 72 | 0.0 | 0.0 | 0.09 | 0.37 | 0.37 | 82 | 1017.0 |
| 20260831210557 | 77 | 318 | 0.0 | 0.0 | 0.11 | 0.37 | 0.37 | 82 | 1016.9 |
| 20260831210055 | 77 | 338 | 0.0 | 0.0 | 0.14 | 0.37 | 0.37 | 82 | 1016.9 |
| 20260831205552 | 77 | 338 | 0.0 | 0.0 | 0.15 | 0.37 | 0.37 | 82 | 1016.9 |
| 20260831205051 | 77 | 329 | 0.0 | 0.0 | 0.15 | 0.37 | 0.37 | 82 | 1016.9 |
| 20260831204551 | 77 | 298 | 0.0 | 0.0 | 0.16 | 0.36 | 0.36 | 82 | 1016.9 |
| 20260831204051 | 77 | 285 | 0.0 | 0.0 | 0.18 | 0.36 | 0.36 | 82 | 1017.0 |
| 20260831203550 | 77 | 352 | 0.0 | 0.0 | 0.22 | 0.35 | 0.35 | 82 | 1017.0 |
| 20260831203052 | 77 | 327 | 0.0 | 0.0 | 0.26 | 0.34 | 0.34 | 82 | 1017.0 |
| 20260831202550 | 78 | 298 | 0.0 | 0.0 | 0.30 | 0.34 | 0.34 | 82 | 1017.2 |
| 20260831202050 | 78 | 314 | 0.0 | 0.0 | 0.27 | 0.30 | 0.30 | 82 | 1017.2 |
| 20260831201555 | 78 | 283 | 0.0 | 0.0 | 0.25 | 0.28 | 0.28 | 82 | 1017.2 |
| 20260831201053 | 78 | 328 | 0.0 | 0.0 | 0.25 | 0.28 | 0.28 | 81 | 1017.0 |
| 20260831200550 | 78 | 282 | 0.0 | 0.0 | 0.22 | 0.25 | 0.25 | 81 | 1017.1 |
| 20260831200048 | 78 | 326 | 0.0 | 0.0 | 0.20 | 0.23 | 0.23 | 81 | 1017.1 |
| 20260831195551 | 78 | 20 | 0.0 | 0.0 | 0.19 | 0.22 | 0.22 | 81 | 1017.1 |
| 20260831195047 | 78 | 257 | 0.0 | 0.0 | 0.19 | 0.22 | 0.22 | 80 | 1017.1 |
| 20260831194626 | 78 | 237 | 0.0 | 0.0 | 0.17 | 0.20 | 0.20 | 80 | 1017.0 |
| 20260831194049 | 78 | 234 | 0.0 | 0.0 | 0.15 | 0.18 | 0.18 | 80 | 1016.9 |
| 20260831193548 | 79 | 218 | 0.0 | 0.0 | 0.10 | 0.13 | 0.13 | 79 | 1016.9 |
| 20260831193049 | 79 | 210 | 0.0 | 0.0 | 0.05 | 0.08 | 0.08 | 79 | 1017.0 |
| 20260831192544 | 80 | 155 | 0.0 | 0.0 | 0.01 | 0.04 | 0.04 | 78 | 1016.9 |
| 20260831192043 | 81 | 125 | 0.0 | 2.0 | 0.00 | 0.03 | 0.03 | 77 | 1016.9 |
| 20260831191542 | 82 | 141 | 0.0 | 2.0 | 0.00 | 0.03 | 0.03 | 75 | 1016.8 |
| 20260831191040 | 83 | 141 | 0.0 | 4.0 | 0.00 | 0.03 | 0.03 | 74 | 1016.6 |
| 20260831190540 | 84 | 127 | 0.0 | 4.0 | 0.00 | 0.03 | 0.03 | 73 | 1016.5 |
| 20260831190044 | 85 | 122 | 0.0 | 0.0 | 0.00 | 0.03 | 0.03 | 74 | 1016.4 |
| 20260831185538 | 85 | 148 | 0.0 | 0.0 | 0.00 | 0.03 | 0.03 | 74 | 1016.5 |
| 20260831185038 | 85 | 167 | 0.0 | 0.0 | 0.00 | 0.03 | 0.03 | 73 | 1016.6 |
| 20260831184602 | 86 | 162 | 0.0 | 0.0 | 0.00 | 0.03 | 0.03 | 73 | 1016.6 |
| 20260831184035 | 86 | 144 | 0.0 | 0.0 | 0.00 | 0.03 | 0.03 | 73 | 1016.5 |
| 20260831183537 | 86 | 116 | 0.0 | 0.0 | 0.00 | 0.03 | 0.03 | 73 | 1016.6 |
| 20260831183039 | 86 | 152 | 0.0 | 0.0 | 0.00 | 0.03 | 0.03 | 73 | 1016.7 |
| 20260831182534 | 86 | 127 | 0.0 | 0.0 | 0.00 | 0.03 | 0.03 | 72 | 1016.9 |
| 20260831182036 | 86 | 142 | 0.0 | 0.0 | 0.00 | 0.03 | 0.03 | 74 | 1017.0 |
| 20260831181532 | 86 | 160 | 0.0 | 0.0 | 0.00 | 0.03 | 0.03 | 73 | 1017.1 |
| 20260831181031 | 86 | 125 | 0.0 | 1.0 | 0.00 | 0.03 | 0.03 | 73 | 1017.0 |
| 20260831180529 | 86 | 124 | 0.0 | 1.0 | 0.00 | 0.03 | 0.03 | 73 | 1017.1 |
| 20260831180033 | 87 | 153 | 0.0 | 4.0 | 0.00 | 0.03 | 0.03 | 72 | 1017.0 |
| 20260831175529 | 87 | 219 | 0.0 | 4.0 | 0.00 | 0.03 | 0.03 | 71 | 1017.2 |
| 20260831175024 | 87 | 149 | 0.0 | 0.0 | 0.00 | 0.03 | 0.03 | 72 | 1017.2 |
| 20260831174525 | 86 | 117 | 0.0 | 0.0 | 0.00 | 0.03 | 0.03 | 72 | 1017.2 |
| 20260831174024 | 86 | 79 | 0.0 | 0.0 | 0.00 | 0.03 | 0.03 | 72 | 1017.2 |
| 20260831173526 | 86 | 167 | 0.0 | 6.0 | 0.00 | 0.03 | 0.03 | 71 | 1017.3 |
| 20260831173021 | 86 | 109 | 0.0 | 6.0 | 0.00 | 0.03 | 0.03 | 71 | 1017.4 |
| 20260831172519 | 87 | 124 | 0.0 | 0.0 | 0.00 | 0.03 | 0.03 | 73 | 1017.4 |
| 20260831172019 | 86 | 157 | 0.0 | 2.0 | 0.00 | 0.03 | 0.03 | 72 | 1017.6 |
| 20260831171518 | 86 | 188 | 0.0 | 0.0 | 0.00 | 0.03 | 0.03 | 72 | 1017.7 |
| 20260831171016 | 86 | 174 | 0.0 | 0.0 | 0.00 | 0.03 | 0.03 | 72 | 1017.6 |
| 20260831170516 | 86 | 103 | 0.0 | 1.0 | 0.00 | 0.03 | 0.03 | 72 | 1017.6 |
| 20260831170015 | 86 | 146 | 0.0 | 0.0 | 0.00 | 0.03 | 0.03 | 73 | 1017.6 |
| 20260831165516 | 86 | 121 | 0.0 | 0.0 | 0.00 | 0.18 | 0.03 | 73 | 1017.6 |
| 20260831165012 | 86 | 117 | 0.0 | 5.0 | 0.00 | 0.18 | 0.03 | 73 | 1017.7 |
| 20260831164511 | 86 | 106 | 0.0 | 5.0 | 0.00 | 0.18 | 0.03 | 73 | 1017.8 |
| 20260831164014 | 86 | 108 | 0.0 | 1.0 | 0.00 | 0.18 | 0.03 | 73 | 1017.8 |
| 20260831163509 | 85 | 151 | 0.0 | 1.0 | 0.00 | 0.18 | 0.03 | 74 | 1017.9 |
| 20260831163012 | 85 | 120 | 0.0 | 1.0 | 0.00 | 0.18 | 0.03 | 73 | 1017.9 |
| 20260831162508 | 85 | 176 | 0.0 | 1.0 | 0.00 | 0.18 | 0.03 | 74 | 1017.9 |
| 20260831162007 | 85 | 130 | 0.0 | 0.0 | 0.00 | 0.18 | 0.03 | 73 | 1017.9 |
| 20260831161512 | 85 | 153 | 0.0 | 0.0 | 0.00 | 0.18 | 0.03 | 74 | 1018.0 |
| 20260831161005 | 85 | 173 | 0.0 | 0.0 | 0.00 | 0.18 | 0.03 | 73 | 1017.8 |
| 20260831160504 | 85 | 181 | 0.0 | 0.0 | 0.00 | 0.18 | 0.03 | 74 | 1017.9 |
| 20260831160007 | 86 | 156 | 0.0 | 0.0 | 0.00 | 0.18 | 0.03 | 73 | 1017.9 |
| 20260831155504 | 86 | 176 | 0.0 | 0.0 | 0.00 | 0.21 | 0.03 | 73 | 1017.9 |
| 20260831155003 | 85 | 96 | 0.0 | 0.0 | 0.00 | 0.21 | 0.03 | 74 | 1017.9 |
| 20260831154505 | 85 | 203 | 0.0 | 0.0 | 0.00 | 0.21 | 0.03 | 74 | 1017.8 |
| 20260831154001 | 85 | 117 | 0.0 | 0.0 | 0.00 | 0.21 | 0.03 | 74 | 1017.8 |
| 20260831153559 | 85 | 110 | 0.0 | 2.0 | 0.00 | 0.21 | 0.03 | 73 | 1017.8 |
| 20260831153059 | 84 | 191 | 0.0 | 4.0 | 0.00 | 0.21 | 0.03 | 74 | 1017.7 |
| 20260831152557 | 85 | 109 | 0.0 | 0.0 | 0.00 | 0.21 | 0.03 | 74 | 1017.8 |
| 20260831152057 | 85 | 119 | 0.0 | 0.0 | 0.00 | 0.21 | 0.03 | 74 | 1017.8 |
| 20260831151603 | 85 | 142 | 0.0 | 0.0 | 0.00 | 0.21 | 0.03 | 73 | 1017.7 |
| 20260831151056 | 85 | 147 | 0.0 | 0.0 | 0.00 | 0.21 | 0.03 | 74 | 1017.7 |
| 20260831150657 | 85 | 122 | 0.0 | 4.0 | 0.00 | 0.21 | 0.03 | 73 | 1017.7 |
| 20260831150053 | 86 | 129 | 0.0 | 4.0 | 0.00 | 0.21 | 0.03 | 73 | 1017.6 |
| 20260831145551 | 85 | 173 | 0.0 | 0.0 | 0.00 | 0.23 | 0.03 | 73 | 1017.6 |
| 20260831145052 | 85 | 188 | 0.0 | 5.0 | 0.00 | 0.23 | 0.03 | 73 | 1017.6 |
| 20260831144606 | 85 | 114 | 0.0 | 0.0 | 0.00 | 0.23 | 0.03 | 73 | 1017.6 |
| 20260831144050 | 85 | 147 | 0.0 | 0.0 | 0.00 | 0.23 | 0.03 | 74 | 1017.7 |
| 20260831143548 | 84 | 145 | 0.0 | 0.0 | 0.00 | 0.23 | 0.03 | 74 | 1017.6 |
| 20260831143048 | 84 | 120 | 0.0 | 2.0 | 0.00 | 0.23 | 0.03 | 74 | 1017.5 |
| 20260831142545 | 83 | 129 | 0.0 | 2.0 | 0.00 | 0.23 | 0.03 | 74 | 1017.6 |
| 20260831142044 | 83 | 145 | 0.0 | 2.0 | 0.00 | 0.23 | 0.03 | 75 | 1017.5 |
| 20260831141543 | 83 | 179 | 0.0 | 0.0 | 0.00 | 0.23 | 0.03 | 76 | 1017.5 |
| 20260831141040 | 82 | 157 | 0.0 | 0.0 | 0.00 | 0.23 | 0.03 | 77 | 1017.5 |
| 20260831140541 | 82 | 120 | 0.0 | 4.0 | 0.00 | 0.23 | 0.03 | 77 | 1017.5 |
| 20260831140038 | 82 | 146 | 0.0 | 4.0 | 0.00 | 0.23 | 0.03 | 77 | 1017.4 |
| 20260831135537 | 82 | 106 | 0.0 | 3.0 | 0.00 | 0.24 | 0.03 | 77 | 1017.5 |
| 20260831135036 | 82 | 159 | 0.0 | 3.0 | 0.00 | 0.24 | 0.03 | 77 | 1017.4 |
| 20260831134536 | 82 | 120 | 0.0 | 4.0 | 0.00 | 0.24 | 0.03 | 77 | 1017.4 |
| 20260831134134 | 82 | 150 | 0.0 | 6.0 | 0.00 | 0.24 | 0.03 | 77 | 1017.3 |
| 20260831133537 | 82 | 116 | 0.0 | 6.0 | 0.00 | 0.24 | 0.03 | 77 | 1017.2 |
| 20260831133033 | 82 | 164 | 0.0 | 1.0 | 0.00 | 0.24 | 0.03 | 77 | 1017.2 |
| 20260831132534 | 81 | 119 | 0.0 | 4.0 | 0.00 | 0.24 | 0.03 | 77 | 1017.1 |
| 20260831132032 | 81 | 122 | 0.0 | 5.0 | 0.00 | 0.24 | 0.03 | 77 | 1017.0 |
| 20260831131530 | 82 | 112 | 0.0 | 5.0 | 0.00 | 0.24 | 0.03 | 77 | 1016.9 |
| 20260831131031 | 81 | 158 | 0.0 | 1.0 | 0.00 | 0.24 | 0.03 | 78 | 1016.9 |
| 20260831130529 | 81 | 106 | 0.0 | 6.0 | 0.00 | 0.24 | 0.03 | 78 | 1017.0 |
| 20260831130028 | 81 | 139 | 1.0 | 6.0 | 0.00 | 0.24 | 0.03 | 77 | 1016.9 |
| 20260831125527 | 81 | 81 | 0.0 | 5.0 | 0.00 | 0.26 | 0.03 | 78 | 1017.0 |
| 20260831125025 | 81 | 133 | 0.0 | 8.0 | 0.00 | 0.26 | 0.03 | 78 | 1016.9 |
| 20260831124524 | 81 | 114 | 1.0 | 8.0 | 0.00 | 0.26 | 0.03 | 78 | 1016.9 |
| 20260831124023 | 80 | 122 | 2.0 | 9.0 | 0.00 | 0.26 | 0.03 | 78 | 1016.8 |
| 20260831123522 | 80 | 153 | 1.0 | 6.0 | 0.00 | 0.26 | 0.03 | 79 | 1016.8 |
| 20260831123022 | 80 | 148 | 0.0 | 5.0 | 0.00 | 0.26 | 0.03 | 79 | 1016.7 |
| 20260831122521 | 80 | 167 | 2.0 | 5.0 | 0.00 | 0.26 | 0.03 | 79 | 1016.5 |
| 20260831122022 | 81 | 203 | 0.0 | 4.0 | 0.00 | 0.26 | 0.03 | 79 | 1016.5 |
| 20260831121531 | 80 | 119 | 0.0 | 0.0 | 0.00 | 0.26 | 0.03 | 79 | 1016.5 |
| 20260831121019 | 80 | 167 | 0.0 | 1.0 | 0.01 | 0.26 | 0.03 | 79 | 1016.4 |
| 20260831120519 | 80 | 176 | 0.0 | 7.0 | 0.01 | 0.26 | 0.03 | 79 | 1016.4 |
| 20260831120021 | 80 | 125 | 2.0 | 7.0 | 0.01 | 0.26 | 0.03 | 79 | 1016.5 |
| 20260831115515 | 80 | 135 | 2.0 | 8.0 | 0.01 | 0.36 | 0.03 | 79 | 1016.6 |